FENGYUN 1C DEB

Satellite information

Favourite Embed

Satellite Type and Status

DEBRISIN ORBIT

Key statistics

Satellite FENGYUN 1C DEB at a glance.

Uptime

9555

Days in orbit

Revolutions

≈ 14.4

Per day

Orbit

SSO

Sun Synchronous Orbit

Inclination

98.8

Latest

Satellite identification and parameters

Extended collection of information and parameters for FENGYUN 1C DEB.

Object identification

Identified? True

Debris? True

Object name: FENGYUN 1C DEB

International designator: 1999-025BSW

Object number (NORAD): 31410

Object ID (CCSDS): 31410

Country: PEOPLES REPUBLIC OF CHINA (PRC)

Current information (Y/N): Y

RCS size: SMALL

Orbital parameters

Period: 99.747 minutes

Inclination: 98.8242 deg

SMA: 7124.589 km

Apoapsis: 827.407 km

Periapsis: 665.502 km

RAAN: 342.0955 deg

Eccentricy: 0.0113624

Argument of periapsis: 45.3221 deg

Mean anomaly: 16.6116 deg

Mean motion: 14.43653614 rev/day

Mean motion (dot): 0.00001597 rev/day2

B* drag term: 0.00044895 1/REarth

Two-line elements (TLE)

Creation date: July 6, 2025, 4:10 a.m.

Reference frame: TEME

Reference center: EARTH

Epoch: July 5, 2025, 3:59 p.m. UTC

TLE line 0: 0 FENGYUN 1C DEB

TLE line 1: 1 31410U 99025BSW 25186.66663287 .00001597 00000-0 44895-3 0 9995

TLE line 2: 2 31410 98.8242 342.0955 0113624 45.3221 16.6116 14.43653614954417

Live tracking on map

Real-time ground track for satellite FENGYUN 1C DEB.

In-orbit conjunctions

A list of the most updated potential collisions computed for object FENGYUN 1C DEB.

Target Orbit TCA Probability of collision Miss distance Type
COSMOS 2251 DEB LEO 2025-03-27 14:20:37 0.0002311799 416.0 (m) DEBRIS
CZ-6A DEB LEO 2025-01-11 17:55:37 0.0002088817 422.0 (m) DEBRIS
CZ-6A DEB LEO 2025-01-06 07:07:30 0.0002640672 647.0 (m) DEBRIS
NOAA 16 DEB SSO 2024-09-14 03:25:02 0.0001116767 62.0 (m) DEBRIS

Associated space launch

Chinese polar orbiting meteorological satellite

FENGYUN 1C DEB was lifted into orbit during the mission ‘Long March 4B | Feng Yun 1C’, on board a Long March 4B space rocket.

The launch took place on May 10, 1999, 1:33 a.m. from Launch Complex 7.

For more information about the launch, click the button.

Launch to space Long March 4B | Feng Yun 1C
Long March 4B | Feng Yun 1C

Agency: N/A

Status: Launch Successful

Launch date: May 10, 1999, 1:33 a.m. UTC

Rocket: Long March 4B

Launch pad: Launch Complex 7

Location: Taiyuan Satellite Launch Center, People's Republic of China

...

Latest news about this satellite

There are no fresh news available about this satellite. Check back as we update our databases every day.


Newsletter sign-up

Weekly statistics, charts and insights to help you stay on top of the space industry.